Starlink 11459

operational
NORAD ID: 62464 Int'l Des: 2024-254 Owner: SPXS Country: US Constellation: starlink
LEOCIRCULAR

Starlink 11459について

説明を読み込み中...

リアルタイム位置

3D地球を読み込み中...

次回通過

高度履歴

Altitude vs Time

uPlot chart will show altitude changes over time

軌道要素

1 62464U 24254C 25301.66674769 .00043269 00000-0 32691-3 0 9999
2 62464 42.9994 298.5577 0000847 249.8217 334.7638 15.71700369 6005
Epoch: Oct 28, 2025 • Age: 5 hours

現在のステータス

高度 366.7 km
速度 7.69 km/s
衛星直下点 -42.91°S, 134.4°W
打ち上げ日 Dec 31, 2024
運用期間 0.8 years
タイプ internet

技術仕様

分類 Payload
質量 960.00 kg
乾燥質量 910.00 kg
総質量 960.00 kg
長さ 0.30 m
直径 4.10 m
スパン 29.00 m
形状 Box + pan
製造者 SPXS
バスタイプ Starlink V2MD
フェーズステータス In Orbit
所有者/国 SPXS/US

大規模コンステレーション

Loading constellations...